Temperature
21 21 21 21 20 20 20 20 19 19 19 20 20 19 19 19 18 18 17 16 16 15 14 14 14 14 13 13 13 13 13 12 12 12 11 11 11 11 11 11 10 10 10 10
20 21 21 20 20 20 20 20 20 19 19 20 20 19 19 18 17 17 16 16 15 15 14 14 13 13 13 13 13 12 12 12 12 11 11 11 11 10 10 10 10 10 10 9
19 21 20 19 20 20 19 19 19 18 18 19 18 18 18 17 16 16 15 15 14 14 14 13 13 13 12 12 12 12 12 11 11 11 10 10 10 10 10 10 10 9 9 9
19 19 18 19 20 20 19 18 19 18 18 18 18 17 17 16 16 15 15 14 14 13 13 13 12 12 12 12 12 11 11 11 10 10 10 10 10 9 9 9 9 9 9 8
18 18 18 19 19 19 18 17 18 18 18 17 17 17 16 16 15 15 14 14 13 13 13 12 12 12 11 11 11 11 10 10 10 10 9 9 9 9 9 9 8 8 8 8
18 17 17 18 18 18 18 16 17 17 17 17 16 15 15 15 14 14 14 13 13 12 12 12 11 11 11 11 10 10 10 10 9 9 9 9 9 8 8 8 8 8 8 8
17 16 17 18 18 18 16 16 17 17 16 16 15 15 15 14 14 13 13 13 12 12 11 11 11 10 10 10 10 9 9 9 9 9 8 8 8 8 8 7 7 7 7 7
17 16 16 17 17 16 16 16 16 16 15 15 15 14 14 13 13 13 12 12 12 11 11 10 10 10 10 9 9 9 9 8 8 8 8 7 7 7 7 7 7 6 6 6
17 16 17 16 16 16 16 15 15 15 14 14 14 14 13 13 12 12 12 11 11 11 10 10 10 9 9 9 9 8 8 8 7 7 7 7 7 7 6 6 6 6 6 6
16 17 16 16 16 15 15 15 14 14 14 13 13 13 13 12 12 11 11 11 10 10 10 9 9 9 9 8 8 8 7 7 7 7 6 6 6 6 6 6 5 5 5 5
15 16 16 15 15 15 14 14 14 13 13 13 12 12 12 12 11 11 11 10 10 10 9 9 9 8 8 8 7 7 7 6 6 6 6 6 6 5 5 5 5 5 5 4
14 15 15 15 14 14 14 13 13 13 12 12 12 11 11 11 11 10 10 10 9 9 9 8 8 8 8 7 7 7 6 6 6 5 5 5 5 5 5 4 4 4 4 4
14 14 14 14 13 13 13 13 12 12 12 11 11 11 11 10 10 10 10 9 9 9 8 8 8 7 7 7 6 6 6 5 5 5 5 5 4 4 4 4 4 4 4 3
14 13 13 13 13 12 12 12 12 11 11 11 11 10 10 10 9 9 9 9 8 8 8 7 7 7 7 6 6 6 5 5 5 4 4 4 4 4 3 3 3 3 3 3
13 13 12 12 12 12 12 11 11 11 10 10 10 9 9 9 9 9 9 8 8 8 7 7 7 7 6 6 5 5 5 4 4 4 4 4 3 3 3 3 3 3 3 3
12 12 12 11 11 11 11 10 10 10 10 9 9 9 9 8 8 8 8 8 7 7 7 7 6 6 6 5 5 4 4 4 4 4 3 3 3 3 3 2 2 2 2 2
11 11 11 11 11 10 10 10 10 9 9 9 9 8 8 8 8 8 7 7 7 7 6 6 6 6 5 5 4 4 4 3 3 3 3 3 3 2 2 2 2 2 2 2
11 11 10 10 10 10 9 9 9 9 8 8 8 8 8 7 7 7 7 6 6 6 6 5 5 5 5 4 4 3 3 3 3 3 3 2 2 2 2 2 2 1 1 1
10 10 9 9 9 9 9 8 8 8 8 8 7 7 7 7 7 6 6 6 5 5 5 5 4 4 4 4 3 3 3 2 2 2 2 2 2 2 1 1 1 1 1 1
9 9 9 9 8 8 8 8 8 8 7 7 7 6 6 6 6 6 5 5 5 5 4 4 4 4 3 3 3 2 2 2 2 1 1 1 1 1 1 1 1 1 1 1
9 8 8 8 8 8 7 7 7 7 7 6 6 6 6 5 5 5 5 4 4 4 4 3 3 3 3 2 2 2 2 1 1 1 1 1 1 0 0 0 0 -0 -0 -0
8 8 8 7 7 7 7 7 7 6 6 6 6 5 5 5 4 4 4 4 4 3 3 3 3 2 2 2 2 1 1 1 0 0 0 0 -0 -0 -0 -0 -0 -0 -0 -1
7 7 7 7 7 6 6 6 6 6 5 5 5 5 4 4 4 3 3 3 3 3 3 2 2 2 2 1 1 1 0 0 0 -0 -0 -0 -0 -1 -1 -1 -1 -1 -1 -1
6 6 6 6 6 6 6 5 5 5 5 5 4 4 4 3 3 3 3 3 3 2 2 2 2 1 1 1 1 0 -0 -0 -0 -0 -1 -1 -1 -1 -1 -1 -1 -1 -1 -1
6 6 6 5 5 5 5 5 5 4 4 4 4 3 3 3 3 3 3 2 2 2 2 1 1 1 1 0 0 -0 -0 -1 -1 -1 -1 -1 -1 -1 -1 -1 -1 -2 -2 -2
5 5 5 5 5 4 4 4 4 4 3 3 3 3 3 2 2 2 2 2 1 1 1 1 1 0 0 -0 -0 -1 -1 -1 -1 -1 -1 -1 -2 -2 -2 -2 -2 -2 -2 -2
5 4 4 4 4 4 4 3 3 3 3 3 2 2 2 2 2 2 1 1 1 1 0 0 0 -0 -0 -1 -1 -1 -1 -1 -2 -2 -2 -2 -2 -2 -2 -2 -2 -2 -2 -2
Wind_Speed
10 9 8 7 8 8 8 8 9 9 8 7 4 3 3 3 3 2 1 2 2 2 1 1 1 1 1 1 1 1 1 1 0 1 1 0 1 2 2 2 2 2 1 1
12 10 9 10 10 10 9 9 9 9 9 5 4 4 4 3 3 3 2 2 2 1 0 1 1 1 1 1 1 1 1 1 1 1 1 1 1 1 2 2 2 2 1 1
9 9 10 9 6 5 5 5 6 6 5 5 5 5 5 4 4 4 4 3 3 2 1 2 2 1 1 0 0 1 0 1 0 0 1 1 2 1 2 2 2 2 2 1
8 8 9 1 4 3 1 3 4 4 5 5 5 4 3 3 4 4 3 3 3 3 2 2 1 1 1 1 1 1 1 1 1 0 1 1 1 1 1 1 2 1 2 1
5 7 7 3 2 2 3 3 3 4 5 5 4 4 3 4 5 4 4 3 2 3 2 2 2 2 2 1 1 1 1 1 2 1 1 1 1 2 2 2 2 2 1 1
6 7 6 1 4 4 2 2 3 4 4 4 4 3 3 4 4 4 4 4 3 2 3 2 2 2 2 1 1 1 2 2 2 1 1 1 1 2 2 1 2 1 1 1
8 8 4 2 3 2 1 2 5 6 5 4 4 3 3 4 4 4 4 3 3 2 2 2 2 2 2 2 1 1 2 2 2 2 1 1 1 1 1 2 2 2 1 1
6 7 4 3 2 1 3 4 5 5 6 5 5 4 3 3 3 3 3 3 3 2 2 1 1 1 2 2 2 2 2 2 2 2 2 2 1 1 1 2 2 2 1 1
3 2 1 2 2 3 5 5 5 5 5 6 6 5 3 3 2 2 2 2 2 1 2 1 1 1 1 2 2 2 2 2 2 2 1 1 1 1 1 1 1 2 1 1
5 3 1 0 2 3 4 4 5 4 5 5 6 6 4 3 3 3 2 2 2 1 2 2 1 1 1 2 2 2 2 2 2 2 2 2 1 1 1 1 1 2 1 2
6 5 3 2 2 3 4 4 4 4 5 5 6 6 5 4 4 3 3 2 2 2 1 2 1 0 1 1 1 2 2 2 1 1 1 1 1 1 1 1 1 1 1 1
4 4 5 5 4 4 4 4 5 5 5 5 5 6 6 5 3 3 2 2 2 2 2 2 1 1 1 1 1 2 2 2 1 1 1 1 1 2 3 2 2 1 1 2
5 5 6 6 6 5 5 5 5 5 5 5 4 5 6 5 4 2 2 2 2 2 2 2 1 0 1 2 2 2 2 2 1 1 1 2 2 2 2 3 2 3 3 3
5 5 6 6 6 6 6 6 5 5 5 4 4 4 5 5 4 3 3 2 2 2 2 1 1 0 0 1 1 1 1 1 2 1 1 2 2 2 2 2 2 2 3 3
5 5 6 6 6 6 6 5 5 5 5 5 4 4 5 5 5 4 3 1 1 2 2 1 1 1 0 0 1 1 1 1 1 1 2 2 3 3 2 2 2 2 2 2
5 6 6 6 6 6 6 5 6 5 5 5 4 5 5 5 4 3 1 1 2 2 2 2 1 1 1 0 1 1 1 2 2 2 2 2 2 2 2 2 2 2 2 2
6 6 6 6 6 6 5 5 5 5 5 5 4 4 4 4 3 2 1 1 1 1 1 0 0 1 0 1 1 1 1 2 3 3 2 2 2 2 2 2 2 2 2 2
5 4 4 5 5 5 5 5 4 5 5 5 4 4 4 3 2 2 1 1 1 1 1 1 1 1 1 1 1 1 1 1 2 2 2 2 2 2 2 2 2 3 2 2
4 4 4 5 5 5 5 5 5 4 4 3 3 4 3 3 2 1 1 1 0 0 1 3 3 2 1 2 3 1 1 1 1 2 1 2 2 2 2 2 2 3 3 2
3 4 4 4 4 4 4 4 4 4 3 3 3 3 3 2 1 1 1 1 1 1 2 2 1 1 1 2 3 1 1 1 1 2 2 2 2 2 2 2 3 3 3 2
3 3 3 4 4 4 4 4 3 3 3 2 2 2 2 1 1 1 0 1 2 3 3 2 1 2 2 2 3 2 1 1 1 1 2 2 2 2 2 3 3 3 3 3
3 3 3 3 3 3 3 3 2 2 2 2 2 1 1 1 1 1 1 1 2 3 2 1 1 2 3 3 1 1 1 2 2 1 1 2 2 3 3 3 3 3 3 3
3 3 3 3 3 3 3 2 2 2 1 1 1 1 1 1 1 0 1 2 2 2 2 1 2 3 4 2 1 1 1 1 2 2 2 2 2 2 3 3 3 3 3 3
3 3 3 3 3 3 3 2 2 1 1 1 1 1 1 1 2 2 2 2 3 3 2 1 2 3 4 2 1 1 1 2 2 2 2 2 2 2 3 3 3 3 3 4
3 3 3 3 2 2 2 2 2 1 1 1 1 2 2 1 1 1 2 2 2 2 1 1 2 3 3 2 2 2 2 2 2 2 2 2 2 3 3 3 3 3 3 3
3 2 2 2 2 2 2 1 1 1 1 1 1 2 2 2 2 2 1 1 1 2 1 1 1 2 2 2 2 2 2 2 3 2 2 2 2 3 3 3 4 4 4 4
3 2 2 2 2 1 2 1 1 1 0 0 1 1 1 1 1 1 1 1 1 1 1 1 1 1 1 1 2 2 2 2 2 2 3 3 3 3 3 4 4 4 4 4
Wind_Direction
282 287 295 288 278 271 264 266 273 284 296 316 349 12 25 38 43 45 34 54 66 82 106 123 152 165 129 117 130 173 178 198 252 3 13 336 305 294 299 302 298 300 279 251
279 275 277 278 272 265 265 273 274 281 290 316 352 14 19 28 34 24 13 29 35 34 99 224 225 211 167 176 176 152 184 140 73 32 355 332 298 305 319 316 313 318 307 277
277 281 283 272 281 267 269 285 290 290 316 356 15 15 16 25 33 23 12 14 7 335 266 242 249 239 229 214 228 143 136 130 95 349 328 312 313 317 311 306 298 294 296 292
276 279 266 274 49 42 338 323 323 333 353 357 2 11 8 55 35 9 5 9 360 348 343 332 326 358 53 74 38 61 44 11 13 357 328 318 313 298 293 295 281 274 284 303
269 268 269 263 10 354 300 299 352 342 341 351 358 338 339 25 21 2 3 3 359 349 344 350 10 16 27 36 33 26 10 347 339 333 318 305 293 288 289 290 281 262 258 270
270 271 272 335 36 19 327 274 0 355 351 354 345 317 330 0 11 5 3 1 357 359 0 13 27 22 7 356 17 10 352 331 329 347 347 308 282 292 303 287 274 275 277 266
258 264 269 353 50 25 281 354 17 10 -0 347 326 326 345 5 9 0 0 2 3 13 13 5 30 27 0 347 342 346 356 351 340 353 346 338 338 352 331 314 300 289 289 292
252 253 259 56 65 358 7 27 13 6 358 346 340 345 353 350 355 351 347 352 355 354 351 353 24 30 0 345 355 3 6 357 346 345 336 356 21 351 324 320 305 285 279 299
272 261 21 74 34 18 14 355 356 357 353 341 332 330 330 327 325 320 324 326 330 336 321 327 19 34 5 352 6 358 353 348 343 346 343 352 357 348 341 340 324 311 296 279
280 272 299 296 3 356 347 335 338 339 332 326 320 316 312 304 296 297 296 293 299 299 302 319 355 22 12 2 356 343 325 325 334 341 341 354 2 11 358 347 336 327 327 318
267 286 312 326 330 322 322 320 323 323 318 313 309 305 301 291 283 277 274 271 271 264 272 290 311 16 18 358 340 318 310 313 317 341 348 350 358 344 311 272 251 272 281 295
266 308 307 311 319 320 313 308 308 311 312 312 310 309 307 300 294 285 282 284 277 274 285 278 277 332 17 8 346 322 310 315 332 355 350 318 299 322 337 303 307 319 294 285
288 306 310 317 326 328 319 314 314 307 303 305 307 309 309 306 302 290 277 273 268 262 265 258 245 314 12 1 345 324 321 327 332 341 327 306 285 277 303 325 308 295 289 289
298 301 296 303 307 312 310 309 311 311 310 311 315 314 312 312 311 296 276 264 264 253 242 235 212 220 10 343 319 313 315 308 312 301 289 288 276 274 270 280 302 306 288 267
282 290 290 298 300 301 304 309 305 301 306 311 316 311 305 301 299 291 287 283 253 239 234 228 207 189 122 342 274 271 273 279 303 299 278 274 268 264 268 273 278 290 303 280
285 287 288 290 290 293 296 298 297 299 306 307 309 306 302 299 296 294 288 265 254 242 233 224 209 173 140 203 270 273 270 280 288 274 266 272 275 273 271 268 276 283 285 283
275 280 285 287 290 294 294 294 296 301 306 307 309 310 307 306 304 309 319 310 292 279 259 261 65 68 72 253 268 277 269 258 272 277 266 275 280 282 282 277 277 282 281 277
283 290 297 295 295 296 296 296 299 299 305 313 319 311 297 289 294 307 313 308 332 342 14 51 53 28 322 327 323 310 293 281 281 284 286 285 282 276 278 277 278 282 280 274
297 301 303 302 300 299 300 302 300 296 302 309 307 299 298 296 302 319 349 345 330 335 24 41 20 21 42 12 345 309 294 303 308 301 287 288 291 288 290 292 291 290 286 288
285 286 289 293 295 298 300 301 302 303 310 313 308 303 300 299 319 5 359 328 18 45 56 45 20 15 34 7 341 324 317 315 304 295 294 290 294 305 310 309 301 293 292 293
280 289 296 296 300 302 300 298 300 306 316 316 310 309 314 328 346 3 360 356 24 44 49 33 24 23 19 349 330 332 339 332 316 308 309 313 309 305 301 303 308 310 309 307
299 299 301 305 306 307 306 306 313 318 322 325 321 329 347 359 356 5 28 38 46 44 46 34 34 16 1 355 335 327 334 330 320 318 313 306 301 303 306 307 305 308 309 306
311 313 312 312 308 302 305 315 326 332 341 348 337 338 1 2 5 30 12 37 62 26 25 42 20 6 356 347 327 323 340 339 332 323 312 305 304 309 309 309 311 312 311 311
315 318 319 318 312 308 313 325 335 355 20 18 357 13 52 36 20 33 50 59 35 20 25 27 7 352 341 326 326 345 353 343 337 330 326 326 323 318 314 316 317 310 306 309
303 301 303 307 309 317 324 328 341 12 28 31 26 27 37 51 53 46 56 54 37 22 13 336 337 333 323 322 348 350 350 342 335 332 328 325 324 322 321 321 321 315 311 310
290 294 299 303 308 310 310 310 322 351 12 22 23 28 30 42 55 57 68 59 21 5 5 342 312 311 315 337 349 349 345 331 323 322 323 323 326 329 326 327 320 313 311 312
279 287 297 303 306 312 308 298 285 293 325 58 10 15 28 37 42 35 31 29 34 353 329 324 318 318 330 342 343 342 338 340 345 345 339 338 340 336 327 321 318 318 320 321
Height
1508 1505 1505 1507 1508 1508 1511 1512 1516 1514 1511 1508 1506 1506 1507 1508 1509 1510 1510 1511 1511 1511 1512 1512 1513 1513 1513 1513 1513 1513 1513 1513 1512 1512 1511 1511 1510 1510 1509 1509 1508 1508 1508 1507
1508 1503 1503 1505 1505 1505 1506 1507 1508 1508 1509 1505 1505 1506 1506 1507 1508 1509 1510 1510 1510 1510 1510 1511 1511 1511 1511 1510 1510 1510 1510 1510 1509 1509 1508 1507 1507 1506 1506 1505 1505 1505 1504 1504
1512 1503 1503 1508 1502 1503 1505 1505 1507 1510 1509 1505 1506 1507 1507 1508 1508 1509 1509 1509 1509 1509 1509 1508 1508 1508 1508 1508 1508 1508 1507 1507 1506 1506 1505 1504 1504 1503 1503 1502 1502 1502 1501 1501
1511 1510 1518 1507 1499 1500 1503 1504 1504 1505 1506 1507 1507 1508 1508 1508 1508 1509 1509 1508 1508 1507 1507 1507 1507 1506 1506 1506 1506 1505 1504 1504 1503 1503 1502 1501 1500 1500 1499 1499 1499 1499 1498 1498
1512 1514 1509 1503 1500 1501 1503 1505 1504 1504 1505 1506 1507 1507 1507 1507 1508 1508 1508 1508 1507 1506 1506 1505 1505 1504 1504 1503 1503 1503 1502 1501 1500 1500 1499 1498 1497 1497 1496 1496 1496 1496 1495 1495
1511 1516 1516 1507 1502 1500 1503 1508 1503 1503 1504 1505 1505 1508 1508 1507 1507 1507 1507 1506 1505 1505 1504 1503 1503 1502 1502 1501 1501 1500 1500 1499 1498 1497 1496 1495 1494 1494 1493 1493 1493 1492 1492 1492
1513 1514 1509 1503 1501 1502 1512 1512 1505 1504 1505 1506 1506 1507 1507 1505 1505 1505 1505 1504 1504 1503 1503 1502 1501 1501 1500 1500 1499 1498 1498 1497 1496 1495 1493 1492 1492 1491 1491 1490 1490 1489 1489 1489
1509 1513 1513 1503 1503 1506 1508 1506 1505 1505 1506 1506 1505 1505 1504 1504 1503 1503 1503 1502 1502 1501 1501 1500 1500 1499 1498 1498 1497 1496 1495 1494 1493 1492 1491 1490 1489 1489 1488 1487 1487 1486 1486 1486
1505 1508 1504 1503 1504 1505 1505 1505 1505 1505 1505 1505 1504 1503 1503 1502 1502 1501 1501 1500 1499 1499 1498 1498 1497 1497 1496 1495 1494 1493 1492 1491 1490 1490 1489 1488 1487 1486 1485 1484 1484 1483 1483 1483
1502 1501 1502 1503 1503 1504 1504 1505 1504 1504 1504 1503 1502 1501 1500 1500 1499 1499 1498 1497 1496 1496 1495 1495 1494 1494 1493 1493 1492 1491 1490 1489 1488 1487 1486 1486 1485 1484 1483 1482 1481 1480 1480 1479
1501 1501 1501 1501 1502 1502 1502 1502 1502 1502 1502 1501 1500 1499 1498 1497 1496 1495 1495 1494 1493 1493 1492 1492 1491 1491 1490 1490 1489 1488 1487 1487 1486 1485 1484 1483 1482 1482 1480 1480 1479 1478 1477 1476
1501 1501 1501 1501 1500 1500 1500 1500 1500 1499 1499 1498 1498 1496 1495 1494 1493 1492 1491 1491 1490 1490 1489 1489 1488 1488 1487 1487 1486 1485 1484 1484 1483 1482 1481 1481 1480 1479 1478 1477 1476 1476 1475 1474
1499 1499 1500 1499 1499 1499 1498 1498 1497 1497 1496 1495 1494 1494 1492 1491 1489 1488 1488 1487 1487 1486 1486 1486 1485 1484 1484 1483 1483 1482 1482 1481 1480 1479 1479 1478 1477 1476 1475 1474 1474 1473 1472 1472
1497 1497 1497 1497 1497 1496 1496 1495 1494 1494 1493 1492 1491 1490 1489 1488 1486 1485 1484 1484 1483 1483 1482 1482 1482 1481 1481 1480 1480 1479 1479 1478 1477 1476 1476 1475 1474 1473 1472 1471 1471 1470 1470 1469
1494 1495 1495 1494 1494 1493 1493 1492 1491 1490 1490 1489 1487 1486 1485 1484 1483 1482 1481 1480 1480 1479 1479 1479 1478 1478 1478 1477 1477 1476 1476 1475 1474 1474 1473 1472 1472 1471 1470 1469 1469 1468 1467 1466
1491 1491 1491 1491 1490 1490 1489 1489 1488 1487 1486 1485 1484 1483 1482 1481 1479 1478 1477 1477 1476 1475 1475 1475 1475 1475 1474 1474 1473 1473 1472 1472 1471 1470 1470 1469 1469 1468 1467 1466 1466 1465 1464 1463
1488 1487 1487 1487 1487 1486 1486 1485 1485 1484 1483 1482 1481 1479 1478 1477 1476 1475 1474 1473 1473 1473 1472 1472 1472 1471 1471 1471 1470 1470 1469 1468 1468 1467 1467 1466 1465 1465 1464 1463 1463 1462 1461 1461
1484 1484 1484 1484 1483 1483 1482 1482 1482 1481 1480 1479 1477 1476 1475 1474 1473 1472 1471 1471 1470 1470 1470 1469 1469 1468 1468 1467 1467 1466 1466 1465 1464 1464 1463 1463 1462 1462 1461 1460 1460 1459 1458 1458
1481 1481 1481 1480 1480 1480 1479 1479 1478 1477 1476 1475 1474 1473 1472 1471 1470 1470 1469 1468 1467 1467 1467 1466 1466 1465 1465 1465 1464 1463 1463 1462 1462 1461 1460 1460 1459 1459 1458 1458 1457 1456 1455 1454
1478 1478 1478 1477 1477 1477 1476 1475 1475 1474 1473 1472 1471 1470 1469 1468 1468 1467 1466 1466 1466 1465 1465 1464 1463 1463 1462 1462 1461 1460 1460 1460 1459 1458 1458 1457 1456 1456 1455 1455 1454 1453 1452 1451
1475 1475 1475 1474 1474 1473 1473 1472 1471 1470 1470 1469 1468 1467 1466 1466 1465 1465 1464 1464 1464 1463 1463 1462 1461 1460 1460 1459 1458 1458 1457 1457 1456 1456 1455 1454 1453 1453 1452 1452 1451 1450 1449 1448
1473 1472 1472 1471 1471 1470 1470 1469 1468 1467 1467 1466 1465 1465 1464 1463 1463 1463 1463 1462 1461 1461 1461 1460 1459 1458 1458 1457 1456 1455 1455 1454 1454 1453 1452 1451 1451 1450 1449 1449 1448 1447 1446 1445
1471 1470 1470 1469 1468 1468 1467 1467 1466 1465 1464 1464 1463 1462 1462 1461 1461 1460 1460 1460 1459 1459 1458 1458 1457 1456 1455 1454 1454 1453 1453 1452 1451 1450 1450 1449 1448 1447 1446 1445 1444 1443 1442 1441
1469 1468 1468 1467 1466 1466 1465 1464 1463 1463 1462 1462 1461 1461 1460 1460 1459 1459 1458 1458 1457 1457 1456 1455 1455 1454 1453 1452 1452 1451 1450 1449 1449 1448 1447 1446 1445 1444 1443 1442 1440 1439 1438 1436
1466 1466 1465 1465 1464 1463 1463 1462 1461 1460 1460 1460 1459 1459 1459 1458 1458 1457 1456 1456 1455 1454 1454 1453 1452 1452 1451 1450 1449 1448 1448 1447 1446 1445 1444 1443 1442 1441 1440 1438 1437 1436 1434 1433
1464 1463 1463 1462 1462 1461 1461 1460 1459 1458 1458 1457 1457 1457 1456 1456 1455 1455 1454 1454 1453 1452 1451 1451 1450 1449 1448 1448 1447 1446 1445 1444 1443 1442 1441 1440 1439 1438 1436 1435 1434 1432 1431 1429
1461 1460 1460 1460 1459 1459 1458 1457 1457 1456 1455 1455 1454 1454 1454 1453 1453 1452 1452 1451 1451 1450 1449 1448 1448 1447 1446 1445 1444 1444 1443 1442 1441 1440 1438 1437 1436 1434 1433 1432 1430 1428 1427 1425